Location: Vihti�l�
(61.3833°N, 23.0667°E)
Time: 04:46:48
(UTC+00:00)

Meteor 1-10 Rocket - Pass Details

Date: 29 November 2020
Orbit: 836 x 910 km, 81.3° (Epoch: 19 January)

Event Time Altitude Azimuth Distance (km) Brightness Sun altitude
Exits shadow 03:28:51 16° 345° (NNW) 2,083 6.1 -24.4°
Maximum altitude 03:33:25 76° 70° (ENE) 873 4.3 -23.9°
Drops below altitude 10° 03:39:00 10° 156° (SSE) 2,466 6.9 -23.2°
Sets 03:41:26 0° 158° (SSE) 3,405 7.7 -22.9°
